Time,TemperatureF,DewpointF,PressureIn,WindDirection,WindDirectionDegrees,WindSpeedMPH,WindSpeedGustMPH,Humidity,HourlyPrecipIn,Conditions,Clouds,dailyrainin,SolarRadiationWatts/m^2,SoftwareType,DateUTC
2017-11-17 00:00:00,39.9,35.0,29.73,West,273,3.0,13.0,83,0.00,,,0.41,0,weatherlink.com 1.10,2017-11-17 05:00:00,
2017-11-17 00:16:00,39.0,35.0,29.72,WSW,258,2.0,3.0,84,0.00,,,0.00,0,weatherlink.com 1.10,2017-11-17 05:16:00,
2017-11-17 00:30:00,36.7,34.0,29.73,SW,227,1.0,4.0,90,0.00,,,0.00,0,weatherlink.com 1.10,2017-11-17 05:30:00,
2017-11-17 00:45:00,36.9,35.0,29.73,WSW,249,2.0,4.0,92,0.00,,,0.00,0,weatherlink.com 1.10,2017-11-17 05:45:00,
2017-11-17 01:00:00,36.3,35.0,29.73,South,172,2.0,4.0,93,0.00,,,0.00,0,weatherlink.com 1.10,2017-11-17 06:00:00,
2017-11-17 01:15:00,36.9,35.0,29.74,South,175,3.0,3.0,94,0.00,,,0.00,0,weatherlink.com 1.10,2017-11-17 06:15:00,
2017-11-17 01:30:00,37.4,36.0,29.74,ESE,117,1.0,3.0,93,0.00,,,0.00,0,weatherlink.com 1.10,2017-11-17 06:30:00,
2017-11-17 01:45:00,37.5,36.0,29.75,North,354,2.0,6.0,93,0.00,,,0.00,0,weatherlink.com 1.10,2017-11-17 06:45:00,
2017-11-17 02:00:00,37.4,35.0,29.76,NNE,17,2.0,4.0,91,0.00,,,0.00,0,weatherlink.com 1.10,2017-11-17 07:00:00,
2017-11-17 02:15:00,37.7,35.0,29.77,WNW,296,2.0,5.0,89,0.00,,,0.00,0,weatherlink.com 1.10,2017-11-17 07:15:00,
2017-11-17 02:30:00,37.0,34.0,29.77,NW,320,0.0,6.0,90,0.00,,,0.00,0,weatherlink.com 1.10,2017-11-17 07:30:00,
2017-11-17 02:45:00,37.3,34.0,29.78,NE,40,2.0,4.0,86,0.00,,,0.00,0,weatherlink.com 1.10,2017-11-17 07:45:00,
2017-11-17 03:02:00,37.0,33.0,29.78,NNE,33,1.0,5.0,86,0.00,,,0.00,0,weatherlink.com 1.10,2017-11-17 08:02:00,
2017-11-17 03:16:00,38.1,33.0,29.79,NNE,20,8.0,14.0,81,0.00,,,0.00,0,weatherlink.com 1.10,2017-11-17 08:16:00,
2017-11-17 03:30:00,38.7,32.0,29.79,North,4,3.0,9.0,78,0.00,,,0.00,0,weatherlink.com 1.10,2017-11-17 08:30:00,
2017-11-17 03:46:00,38.5,32.0,29.80,NNW,330,4.0,13.0,77,0.00,,,0.00,0,weatherlink.com 1.10,2017-11-17 08:46:00,
2017-11-17 04:00:00,38.2,31.0,29.81,NNE,17,12.0,18.0,76,0.00,,,0.00,0,weatherlink.com 1.10,2017-11-17 09:00:00,
2017-11-17 04:16:00,38.1,31.0,29.82,NE,39,12.0,17.0,75,0.00,,,0.00,0,weatherlink.com 1.10,2017-11-17 09:16:00,
2017-11-17 04:30:00,37.9,31.0,29.82,North,11,7.0,12.0,75,0.00,,,0.00,0,weatherlink.com 1.10,2017-11-17 09:30:00,
2017-11-17 04:46:00,37.7,30.0,29.84,NNE,22,3.0,21.0,74,0.00,,,0.00,0,weatherlink.com 1.10,2017-11-17 09:46:00,
2017-11-17 05:01:00,37.2,30.0,29.84,WNW,292,5.0,17.0,74,0.00,,,0.00,0,weatherlink.com 1.10,2017-11-17 10:01:00,
2017-11-17 05:16:00,36.8,29.0,29.85,NE,37,7.0,22.0,74,0.00,,,0.00,0,weatherlink.com 1.10,2017-11-17 10:16:00,
2017-11-17 05:31:00,36.6,29.0,29.86,North,4,8.0,17.0,74,0.00,,,0.00,0,weatherlink.com 1.10,2017-11-17 10:31:00,
2017-11-17 05:46:00,36.3,29.0,29.86,NW,319,5.0,14.0,75,0.00,,,0.00,0,weatherlink.com 1.10,2017-11-17 10:46:00,
2017-11-17 06:01:00,36.2,29.0,29.88,North,359,11.0,16.0,74,0.00,,,0.00,0,weatherlink.com 1.10,2017-11-17 11:01:00,
2017-11-17 06:16:00,36.0,28.0,29.89,NNW,327,8.0,20.0,73,0.00,,,0.00,0,weatherlink.com 1.10,2017-11-17 11:16:00,
2017-11-17 06:31:00,35.5,28.0,29.89,SE,138,5.0,16.0,73,0.00,,,0.00,0,weatherlink.com 1.10,2017-11-17 11:31:00,
2017-11-17 06:46:00,35.4,28.0,29.90,NNW,341,9.0,16.0,74,0.00,,,0.00,0,weatherlink.com 1.10,2017-11-17 11:46:00,
2017-11-17 07:01:00,35.4,28.0,29.91,North,8,5.0,15.0,74,0.00,,,0.00,7,weatherlink.com 1.10,2017-11-17 12:01:00,
2017-11-17 07:17:00,35.4,28.0,29.92,NW,310,8.0,14.0,74,0.00,,,0.00,9,weatherlink.com 1.10,2017-11-17 12:17:00,
2017-11-17 07:31:00,35.4,28.0,29.93,NNW,339,4.0,17.0,73,0.00,,,0.00,19,weatherlink.com 1.10,2017-11-17 12:31:00,
2017-11-17 07:46:00,35.3,28.0,29.94,NW,312,9.0,10.0,74,0.00,,,0.00,26,weatherlink.com 1.10,2017-11-17 12:46:00,
2017-11-17 08:01:00,35.2,28.0,29.94,North,10,4.0,13.0,74,0.00,,,0.00,37,weatherlink.com 1.10,2017-11-17 13:01:00,
2017-11-17 08:17:00,35.3,27.0,29.95,NNW,337,4.0,13.0,73,0.00,,,0.00,49,weatherlink.com 1.10,2017-11-17 13:17:00,
2017-11-17 08:32:00,35.4,28.0,29.95,NW,322,3.0,13.0,73,0.00,,,0.00,70,weatherlink.com 1.10,2017-11-17 13:32:00,
2017-11-17 08:47:00,35.5,28.0,29.95,NNE,17,5.0,14.0,73,0.00,,,0.00,79,weatherlink.com 1.10,2017-11-17 13:47:00,
2017-11-17 09:01:00,35.8,28.0,29.95,NW,304,7.0,14.0,72,0.00,,,0.00,151,weatherlink.com 1.10,2017-11-17 14:01:00,
2017-11-17 09:16:00,36.1,28.0,29.96,NNE,14,21.0,25.0,71,0.00,,,0.00,118,weatherlink.com 1.10,2017-11-17 14:16:00,
2017-11-17 09:31:00,36.1,28.0,29.97,West,264,11.0,18.0,71,0.00,,,0.00,135,weatherlink.com 1.10,2017-11-17 14:31:00,
2017-11-17 09:46:00,36.5,28.0,29.97,North,4,11.0,20.0,70,0.00,,,0.00,299,weatherlink.com 1.10,2017-11-17 14:46:00,
2017-11-17 10:01:00,36.8,27.0,29.97,North,354,5.0,21.0,68,0.00,,,0.00,207,weatherlink.com 1.10,2017-11-17 15:01:00,
2017-11-17 10:19:00,36.7,27.0,29.97,WNW,291,2.0,14.0,69,0.00,,,0.00,431,weatherlink.com 1.10,2017-11-17 15:19:00,
2017-11-17 10:32:00,37.2,28.0,29.96,NE,48,12.0,23.0,69,0.00,,,0.00,501,weatherlink.com 1.10,2017-11-17 15:32:00,
2017-11-17 10:47:00,38.2,28.0,29.96,NNW,341,5.0,23.0,68,0.00,,,0.00,517,weatherlink.com 1.10,2017-11-17 15:47:00,
2017-11-17 11:02:00,38.7,27.0,29.95,NNE,24,8.0,15.0,64,0.00,,,0.00,545,weatherlink.com 1.10,2017-11-17 16:02:00,
2017-11-17 11:17:00,38.4,27.0,29.95,NE,47,21.0,25.0,63,0.00,,,0.00,547,weatherlink.com 1.10,2017-11-17 16:17:00,
2017-11-17 11:32:00,38.6,27.0,29.94,NW,318,9.0,25.0,63,0.00,,,0.00,529,weatherlink.com 1.10,2017-11-17 16:32:00,
2017-11-17 11:47:00,38.9,28.0,29.94,NNW,345,12.0,16.0,64,0.00,,,0.00,531,weatherlink.com 1.10,2017-11-17 16:47:00,
2017-11-17 12:02:00,38.7,27.0,29.95,WNW,295,5.0,22.0,63,0.00,,,0.00,540,weatherlink.com 1.10,2017-11-17 17:02:00,
2017-11-17 12:17:00,37.9,26.0,29.95,WNW,299,5.0,16.0,62,0.00,,,0.00,504,weatherlink.com 1.10,2017-11-17 17:17:00,
2017-11-17 12:32:00,39.1,26.0,29.95,NNW,341,8.0,13.0,60,0.00,,,0.00,513,weatherlink.com 1.10,2017-11-17 17:32:00,
2017-11-17 13:02:00,39.8,25.0,29.94,NNE,17,15.0,19.0,56,0.00,,,0.00,475,weatherlink.com 1.10,2017-11-17 18:02:00,